• En España
  • Lista de países
  • Para 7 días
  • Temperatura del agua
  • Mapa Satelital
  • El tiempo en el mapa
  • Informadores
  • user-avatar
    Iniciar sesión

    Tiempo cada hora Myaskovo

    Hoy, 22 Julio, Domingo

    Tiempo Temperatura Precipitaciones Viento Presión Humedad
    00:00 +19°C° 0 mm 1 mps 733 mmHg 96%
    01:00 +19°C° 0 mm 1 mps 733 mmHg 97%
    02:00 +19°C° 0 mm 1 mps 733 mmHg 98%
    03:00 +19°C° 0,2 mm 1 mps 733 mmHg 98%
    04:00 +19°C° 0,2 mm 1 mps 733 mmHg 98%
    05:00 +18°C° 0,2 mm 2 mps 733 mmHg 98%
    06:00 +19°C° 0,4 mm 2 mps 733 mmHg 96%
    07:00 +20°C° 0,4 mm 2 mps 734 mmHg 95%
    08:00 +21°C° 0,4 mm 2 mps 734 mmHg 93%
    09:00 +21°C° 0,5 mm 3 mps 734 mmHg 91%
    10:00 +22°C° 0,5 mm 3 mps 734 mmHg 89%
    11:00 +22°C° 0,5 mm 3 mps 734 mmHg 86%
    12:00 +22°C° 0,2 mm 3 mps 734 mmHg 86%
    13:00 +22°C° 0,2 mm 3 mps 734 mmHg 85%
    14:00 +22°C° 0,2 mm 3 mps 734 mmHg 84%
    15:00 +21°C° 0 mm 3 mps 734 mmHg 85%
    16:00 +21°C° 0 mm 3 mps 734 mmHg 86%
    17:00 +21°C° 0 mm 2 mps 734 mmHg 86%
    18:00 +20°C° 0 mm 2 mps 734 mmHg 88%
    19:00 +20°C° 0 mm 2 mps 734 mmHg 90%
    20:00 +19°C° 0 mm 2 mps 734 mmHg 92%
    21:00 +19°C° 0 mm 2 mps 734 mmHg 92%
    22:00 +19°C° 0 mm 2 mps 734 mmHg 93%
    23:00 +18°C° 0 mm 2 mps 734 mmHg 93%

    Mañana, 23 Julio, Lunes

    Tiempo Temperatura Precipitaciones Viento Presión Humedad
    00:00 +18°C° 0 mm 2 mps 734 mmHg 94%
    01:00 +19°C° 0 mm 1 mps 735 mmHg 94%
    02:00 +19°C° 0 mm 1 mps 735 mmHg 95%
    03:00 +19°C° 0 mm 1 mps 735 mmHg 94%
    04:00 +18°C° 0 mm 2 mps 735 mmHg 94%
    05:00 +18°C° 0 mm 2 mps 735 mmHg 94%
    06:00 +18°C° 0 mm 2 mps 735 mmHg 92%
    07:00 +19°C° 0 mm 2 mps 735 mmHg 90%
    08:00 +19°C° 0 mm 3 mps 735 mmHg 88%
    09:00 +20°C° 0,1 mm 3 mps 735 mmHg 83%
    10:00 +21°C° 0,1 mm 3 mps 735 mmHg 79%
    11:00 +22°C° 0,1 mm 4 mps 736 mmHg 74%
    12:00 +22°C° 0,1 mm 4 mps 735 mmHg 72%
    13:00 +22°C° 0,1 mm 4 mps 735 mmHg 71%
    14:00 +22°C° 0,1 mm 4 mps 735 mmHg 69%
    15:00 +22°C° 0 mm 3 mps 735 mmHg 69%
    16:00 +22°C° 0 mm 3 mps 735 mmHg 70%
    17:00 +22°C° 0 mm 3 mps 735 mmHg 70%
    18:00 +21°C° 0 mm 3 mps 735 mmHg 76%
    19:00 +19°C° 0 mm 2 mps 736 mmHg 83%
    20:00 +18°C° 0 mm 2 mps 736 mmHg 89%
    21:00 +17°C° 0 mm 2 mps 736 mmHg 92%
    22:00 +17°C° 0 mm 2 mps 736 mmHg 94%
    23:00 +16°C° 0 mm 2 mps 736 mmHg 96%

    Pasado mañana, 24 Julio, Martes

    Tiempo Temperatura Precipitaciones Viento Presión Humedad
    00:00 +15°C° 0 mm 2 mps 736 mmHg 97%
    01:00 +15°C° 0 mm 2 mps 736 mmHg 97%
    02:00 +15°C° 0 mm 2 mps 736 mmHg 98%
    03:00 +15°C° 0 mm 2 mps 736 mmHg 97%
    04:00 +15°C° 0 mm 2 mps 736 mmHg 96%
    05:00 +14°C° 0 mm 3 mps 736 mmHg 96%
    06:00 +16°C° 0 mm 3 mps 736 mmHg 93%
    07:00 +16°C° 0 mm 3 mps 736 mmHg 90%
    08:00 +17°C° 0 mm 3 mps 736 mmHg 87%
    09:00 +18°C° 0 mm 3 mps 736 mmHg 86%
    10:00 +18°C° 0 mm 3 mps 737 mmHg 84%
    11:00 +19°C° 0 mm 3 mps 737 mmHg 83%
    12:00 +19°C° 0 mm 3 mps 737 mmHg 82%
    13:00 +20°C° 0 mm 3 mps 737 mmHg 82%
    14:00 +20°C° 0 mm 3 mps 737 mmHg 81%
    15:00 +20°C° 0 mm 3 mps 737 mmHg 84%
    16:00 +20°C° 0 mm 3 mps 737 mmHg 86%
    17:00 +19°C° 0 mm 3 mps 737 mmHg 89%
    18:00 +19°C° 0 mm 3 mps 737 mmHg 91%
    19:00 +19°C° 0 mm 3 mps 737 mmHg 92%
    20:00 +19°C° 0 mm 2 mps 737 mmHg 93%
    21:00 +19°C° 0 mm 2 mps 737 mmHg 95%
    22:00 +18°C° 0 mm 2 mps 737 mmHg 96%
    23:00 +18°C° 0 mm 2 mps 737 mmHg 97%

    25 Julio, Miércoles

    Tiempo Temperatura Precipitaciones Viento Presión Humedad
    00:00 +18°C° 0 mm 2 mps 737 mmHg 97%
    01:00 +18°C° 0 mm 2 mps 737 mmHg 98%
    02:00 +18°C° 0 mm 2 mps 737 mmHg 98%
    03:00 +18°C° 0 mm 2 mps 737 mmHg 98%
    04:00 +18°C° 0 mm 2 mps 738 mmHg 97%
    05:00 +19°C° 0 mm 2 mps 738 mmHg 97%
    06:00 +20°C° 0 mm 3 mps 738 mmHg 93%
    07:00 +21°C° 0 mm 3 mps 738 mmHg 88%
    08:00 +22°C° 0 mm 3 mps 739 mmHg 84%
    09:00 +24°C° 0,5 mm 3 mps 739 mmHg 81%
    10:00 +25°C° 0,5 mm 3 mps 739 mmHg 78%
    11:00 +25°C° 0,5 mm 3 mps 739 mmHg 75%
    12:00 +26°C° 0,1 mm 3 mps 739 mmHg 66%
    13:00 +27°C° 0,1 mm 4 mps 739 mmHg 56%
    14:00 +29°C° 0,1 mm 5 mps 739 mmHg 47%
    15:00 +28°C° 0 mm 4 mps 739 mmHg 49%
    16:00 +28°C° 0 mm 3 mps 739 mmHg 52%
    17:00 +27°C° 0 mm 2 mps 739 mmHg 55%
    18:00 +25°C° 0 mm 3 mps 739 mmHg 59%
    19:00 +24°C° 0 mm 3 mps 739 mmHg 63%
    20:00 +21°C° 0 mm 3 mps 739 mmHg 67%
    21:00 +20°C° 0 mm 3 mps 739 mmHg 66%
    22:00 +19°C° 0 mm 3 mps 739 mmHg 65%
    23:00 +18°C° 0 mm 3 mps 739 mmHg 64%

    26 Julio, Jueves

    Tiempo Temperatura Precipitaciones Viento Presión Humedad
    00:00 +18°C° 0 mm 3 mps 739 mmHg 68%
    01:00 +18°C° 0 mm 3 mps 739 mmHg 71%
    02:00 +17°C° 0 mm 3 mps 739 mmHg 74%
    03:00 +17°C° 0 mm 3 mps 740 mmHg 76%
    04:00 +17°C° 0 mm 3 mps 740 mmHg 79%
    05:00 +17°C° 0 mm 3 mps 740 mmHg 81%
    06:00 +19°C° 0 mm 3 mps 741 mmHg 77%
    07:00 +21°C° 0 mm 3 mps 741 mmHg 72%
    08:00 +24°C° 0 mm 3 mps 741 mmHg 67%
    09:00 +25°C° 0 mm 3 mps 741 mmHg 60%
    10:00 +27°C° 0 mm 4 mps 741 mmHg 53%
    11:00 +29°C° 0 mm 4 mps 741 mmHg 47%
    12:00 +29°C° 0 mm 4 mps 741 mmHg 45%
    13:00 +30°C° 0 mm 4 mps 741 mmHg 44%
    14:00 +30°C° 0 mm 4 mps 741 mmHg 42%
    15:00 +30°C° 0 mm 4 mps 741 mmHg 47%
    16:00 +29°C° 0 mm 3 mps 741 mmHg 51%
    17:00 +29°C° 0 mm 3 mps 741 mmHg 56%
    18:00 +27°C° 0 mm 3 mps 741 mmHg 63%
    19:00 +25°C° 0 mm 3 mps 741 mmHg 71%
    20:00 +23°C° 0 mm 2 mps 741 mmHg 78%
    21:00 +21°C° 0 mm 2 mps 741 mmHg 82%
    22:00 +20°C° 0 mm 2 mps 742 mmHg 86%
    23:00 +19°C° 0 mm 2 mps 742 mmHg 90%

    27 Julio, Viernes

    Tiempo Temperatura Precipitaciones Viento Presión Humedad
    00:00 +18°C° 0 mm 2 mps 742 mmHg 91%
    01:00 +18°C° 0 mm 2 mps 742 mmHg 92%
    02:00 +18°C° 0 mm 2 mps 742 mmHg 93%
    03:00 +18°C° 0 mm 2 mps 742 mmHg 92%
    04:00 +18°C° 0 mm 2 mps 743 mmHg 91%
    05:00 +18°C° 0 mm 2 mps 743 mmHg 89%
    06:00 +20°C° 0 mm 2 mps 743 mmHg 84%
    07:00 +22°C° 0 mm 3 mps 743 mmHg 79%
    08:00 +25°C° 0 mm 3 mps 743 mmHg 73%
    09:00 +26°C° 0,1 mm 3 mps 743 mmHg 66%
    10:00 +28°C° 0,1 mm 3 mps 743 mmHg 59%
    11:00 +29°C° 0,1 mm 4 mps 744 mmHg 52%
    12:00 +29°C° 0,2 mm 4 mps 744 mmHg 53%
    13:00 +29°C° 0,2 mm 4 mps 743 mmHg 54%
    14:00 +29°C° 0,2 mm 3 mps 743 mmHg 55%
    15:00 +29°C° 0,2 mm 3 mps 743 mmHg 60%
    16:00 +28°C° 0,2 mm 2 mps 743 mmHg 64%
    17:00 +27°C° 0,2 mm 2 mps 743 mmHg 69%
    18:00 +26°C° 0,1 mm 2 mps 743 mmHg 75%
    19:00 +25°C° 0,1 mm 2 mps 744 mmHg 80%
    20:00 +23°C° 0,1 mm 2 mps 744 mmHg 86%
    21:00 +21°C° 0 mm 2 mps 744 mmHg 88%
    22:00 +21°C° 0 mm 2 mps 744 mmHg 89%
    23:00 +21°C° 0 mm 1 mps 744 mmHg 90%
    Mostrar más